Regional Weather Roundup
Issued by NWS

Home | Current Version | Previous Version | Text Only | Print | Product List | Glossary Off
Versions: 1 2 3 4 5 6 7 8 9 10 11 12 13 14 15 16 17 18 19 20 21 22 23 24 25 26 27 28 29 30 31 32 33 34 35 36 37 38 39 40 41 42 43 44 45 46 47 48 49 50

000
ASUS43 KFSD 250402
RWRSD

WEATHER ROUNDUP FOR SOUTH DAKOTA
NATIONAL WEATHER SERVICE SIOUX FALLS SD
1100 PM CDT WED MAY 24 2017

NOTE: "FAIR" INDICATES FEW OR NO CLOUDS BELOW 12,000 FEET WITH NO
SIGNIFICANT WEATHER AND/OR OBSTRUCTIONS TO VISIBILITY.


SDZ001>005-009-010-012>017-250500-
NORTHWEST AND NORTH CENTRAL SOUTH DAKOTA

CITY           SKY/WX    TMP DP  RH WIND       PRES   REMARKS
BUFFALO          N/A     59  50  72 N13       29.27R
FAITH            N/A     60  40  47 SE32G41   29.30F
MOBRIDGE       CLEAR     60  41  49 SE26G39   29.39S
$$

SDZ012>016-024>037-041>051-057-063-072>074-250500-
SOUTHWEST AND SOUTH CENTRAL SOUTH DAKOTA

CITY           SKY/WX    TMP DP  RH WIND       PRES   REMARKS
RAPID CTY ARPT PTCLDY    66  50  56 S17       29.28F
PIERRE         CLEAR     58  43  57 SE18G26   29.42R
CUSTER         CLEAR     59  45  59 SW6       29.44R
ELLSWORTH AFB  PTCLDY    67  51  57 S15       29.26F
PHILIP         CLEAR     58  45  62 E6        29.35R
PINE RIDGE     PTCLDY    68  46  45 S23G39    29.37S
SPEARFISH      FAIR      68  50  52 W24G33    29.33R
WINNER         FAIR      60  44  55 SE22G28   29.47S
$$

SDZ004>011-016>023-039-040-250500-
NORTHEAST SOUTH DAKOTA

CITY           SKY/WX    TMP DP  RH WIND       PRES   REMARKS
ABERDEEN       CLEAR     54  42  64 SE13      29.56S
WATERTOWN      CLEAR     50  43  77 SE9       29.63S
BROOKINGS      CLEAR     50  44  80 SE10      29.65S
SISSETON         N/A     50  45  83 S9        29.63S
$$

SDZ017-020-022-023-036>040-048>070-250500-
SOUTHEAST SOUTH DAKOTA

CITY           SKY/WX    TMP DP  RH WIND       PRES   REMARKS
SIOUX FALLS    CLEAR     53  45  74 SE10      29.65R
HURON          CLEAR     53  46  77 SE12      29.56F
MITCHELL       CLEAR     55  46  71 SE13      29.59S
YANKTON        CLEAR     55  44  66 SE8       29.63R
$$

ABBREVIATIONS USED IN REMARKS
   TC - TEMPERATURE IN CELSIUS
  WCI - WIND CHILL INDEX
   HX - HEAT INDEX
  VSB - VISIBILITY





USA.gov is the U.S. government's official web portal to all federal, state and local government web resources and services.